Time,TemperatureF,DewpointF,PressureIn,WindDirection,WindDirectionDegrees,WindSpeedMPH,WindSpeedGustMPH,Humidity,HourlyPrecipIn,Conditions,Clouds,dailyrainin,SoftwareType,DateUTC
2013-03-06 00:00:00,44.6,44.3,29.54,SSE,149,0.0,0.0,99,0.00,,,0.00,Wunderground v.1.15,2013-03-06 05:00:00,
2013-03-06 00:05:00,44.5,44.2,29.54,SSE,149,0.0,0.0,99,0.00,,,0.00,Wunderground v.1.15,2013-03-06 05:05:00,
2013-03-06 00:10:00,44.4,44.1,29.54,SSE,149,0.0,0.0,99,0.00,,,0.00,Wunderground v.1.15,2013-03-06 05:10:00,
2013-03-06 00:15:00,44.5,44.2,29.54,SSE,149,0.0,0.0,99,0.00,,,0.00,Wunderground v.1.15,2013-03-06 05:15:00,
2013-03-06 05:25:00,38.8,37.5,29.60,SW,226,1.0,1.0,95,0.00,,,0.02,Wunderground v.1.15,2013-03-06 10:25:00,
2013-03-06 05:30:00,38.7,37.4,29.60,SW,232,1.0,3.0,95,0.00,,,0.02,Wunderground v.1.15,2013-03-06 10:30:00,
2013-03-06 05:40:00,38.2,36.9,29.61,South,173,1.0,1.0,95,0.00,,,0.03,Wunderground v.1.15,2013-03-06 10:40:00,
2013-03-06 05:45:00,38.0,36.7,29.61,SSW,195,1.0,1.0,95,0.00,,,0.03,Wunderground v.1.15,2013-03-06 10:45:00,
2013-03-06 05:50:00,37.9,36.6,29.61,SSE,160,1.0,1.0,95,0.00,,,0.03,Wunderground v.1.15,2013-03-06 10:50:00,
2013-03-06 05:55:00,37.8,36.5,29.61,SE,134,1.0,1.0,95,0.00,,,0.03,Wunderground v.1.15,2013-03-06 10:55:00,
2013-03-06 06:00:00,37.6,36.3,29.61,WNW,289,0.0,2.0,95,0.00,,,0.03,Wunderground v.1.15,2013-03-06 11:00:00,
2013-03-06 06:05:00,37.6,36.6,29.61,SSW,198,1.0,2.0,96,0.00,,,0.03,Wunderground v.1.15,2013-03-06 11:05:00,
2013-03-06 06:15:00,37.5,36.5,29.61,SSW,207,1.0,1.0,96,0.00,,,0.03,Wunderground v.1.15,2013-03-06 11:15:00,
2013-03-06 06:20:00,37.5,36.5,29.61,SSE,148,0.0,0.0,96,0.00,,,0.03,Wunderground v.1.15,2013-03-06 11:20:00,
2013-03-06 06:30:00,37.3,36.3,29.61,West,260,1.0,1.0,96,0.00,,,0.03,Wunderground v.1.15,2013-03-06 11:30:00,
2013-03-06 06:35:00,37.3,36.3,29.61,SSE,165,1.0,1.0,96,0.00,,,0.03,Wunderground v.1.15,2013-03-06 11:35:00,
2013-03-06 06:40:00,37.2,35.9,29.61,SSE,149,0.0,0.0,95,0.00,,,0.03,Wunderground v.1.15,2013-03-06 11:40:00,
2013-03-06 06:45:00,37.0,35.7,29.61,SSW,213,1.0,1.0,95,0.00,,,0.03,Wunderground v.1.15,2013-03-06 11:45:00,
2013-03-06 06:55:00,36.8,35.2,29.62,South,181,0.0,1.0,94,0.00,,,0.03,Wunderground v.1.15,2013-03-06 11:55:00,
2013-03-06 07:00:00,36.7,34.9,29.62,SSW,212,1.0,2.0,93,0.00,,,0.03,Wunderground v.1.15,2013-03-06 12:00:00,
2013-03-06 07:10:00,36.6,34.2,29.63,SSW,208,1.0,1.0,91,0.00,,,0.03,Wunderground v.1.15,2013-03-06 12:10:00,
2013-03-06 07:20:00,36.5,33.6,29.63,South,187,1.0,2.0,89,0.00,,,0.03,Wunderground v.1.15,2013-03-06 12:20:00,
2013-03-06 07:25:00,36.5,33.3,29.63,South,183,1.0,2.0,88,0.00,,,0.03,Wunderground v.1.15,2013-03-06 12:25:00,
2013-03-06 07:30:00,36.5,33.6,29.64,South,187,1.0,1.0,89,0.00,,,0.03,Wunderground v.1.15,2013-03-06 12:30:00,
2013-03-06 07:40:00,36.5,33.6,29.64,SSW,197,0.0,3.0,89,0.00,,,0.03,Wunderground v.1.15,2013-03-06 12:40:00,
2013-03-06 07:45:00,36.4,32.9,29.64,SW,226,1.0,3.0,87,0.00,,,0.03,Wunderground v.1.15,2013-03-06 12:45:00,
2013-03-06 07:55:00,36.5,32.4,29.65,SW,221,2.0,2.0,85,0.00,,,0.03,Wunderground v.1.15,2013-03-06 12:55:00,
2013-03-06 08:00:00,36.5,32.4,29.65,SSW,203,2.0,2.0,85,0.00,,,0.03,Wunderground v.1.15,2013-03-06 13:00:00,
2013-03-06 08:10:00,36.8,32.4,29.66,ESE,113,2.0,2.0,84,0.00,,,0.03,Wunderground v.1.15,2013-03-06 13:10:00,
2013-03-06 08:15:00,37.0,32.3,29.66,South,177,2.0,2.0,83,0.00,,,0.03,Wunderground v.1.15,2013-03-06 13:15:00,
2013-03-06 08:25:00,37.3,32.0,29.66,SSW,210,1.0,1.0,81,0.00,,,0.03,Wunderground v.1.15,2013-03-06 13:25:00,
2013-03-06 08:30:00,37.5,32.2,29.66,South,181,2.0,2.0,81,0.00,,,0.03,Wunderground v.1.15,2013-03-06 13:30:00,
2013-03-06 08:35:00,37.7,31.8,29.66,ESE,117,2.0,4.0,79,0.00,,,0.03,Wunderground v.1.15,2013-03-06 13:35:00,
2013-03-06 08:40:00,38.0,32.1,29.66,SW,222,2.0,2.0,79,0.00,,,0.03,Wunderground v.1.15,2013-03-06 13:40:00,
2013-03-06 08:45:00,38.1,32.2,29.66,SW,222,2.0,2.0,79,0.00,,,0.03,Wunderground v.1.15,2013-03-06 13:45:00,
2013-03-06 08:55:00,38.3,31.1,29.67,SSW,199,2.0,2.0,75,0.00,,,0.03,Wunderground v.1.15,2013-03-06 13:55:00,
2013-03-06 09:00:00,38.4,30.8,29.67,WSW,257,2.0,4.0,74,0.00,,,0.03,Wunderground v.1.15,2013-03-06 14:00:00,
2013-03-06 09:10:00,39.0,30.7,29.67,SW,226,2.0,3.0,72,0.00,,,0.03,Wunderground v.1.15,2013-03-06 14:10:00,
2013-03-06 09:15:00,39.3,30.3,29.67,South,175,2.0,3.0,70,0.00,,,0.03,Wunderground v.1.15,2013-03-06 14:15:00,
2013-03-06 09:25:00,39.3,29.6,29.67,North,5,2.0,4.0,68,0.00,,,0.03,Wunderground v.1.15,2013-03-06 14:25:00,
2013-03-06 09:30:00,39.5,29.8,29.68,West,271,3.0,5.0,68,0.00,,,0.03,Wunderground v.1.15,2013-03-06 14:30:00,
2013-03-06 09:40:00,39.9,28.7,29.67,SW,231,3.0,6.0,64,0.00,,,0.03,Wunderground v.1.15,2013-03-06 14:40:00,
2013-03-06 09:45:00,40.1,28.5,29.67,SW,231,4.0,6.0,63,0.00,,,0.03,Wunderground v.1.15,2013-03-06 14:45:00,
2013-03-06 09:50:00,40.3,28.7,29.68,SSE,150,4.0,4.0,63,0.00,,,0.03,Wunderground v.1.15,2013-03-06 14:50:00,
2013-03-06 10:00:00,40.7,29.1,29.68,SW,232,4.0,4.0,63,0.00,,,0.03,Wunderground v.1.15,2013-03-06 15:00:00,
2013-03-06 10:05:00,41.0,28.6,29.68,ENE,65,4.0,4.0,61,0.00,,,0.03,Wunderground v.1.15,2013-03-06 15:05:00,
2013-03-06 10:15:00,41.7,29.2,29.69,SSE,156,3.0,3.0,61,0.00,,,0.03,Wunderground v.1.15,2013-03-06 15:15:00,
2013-03-06 10:20:00,41.8,28.9,29.68,ENE,68,3.0,3.0,60,0.00,,,0.03,Wunderground v.1.15,2013-03-06 15:20:00,
2013-03-06 10:25:00,42.0,28.7,29.69,ESE,103,3.0,3.0,59,0.00,,,0.03,Wunderground v.1.15,2013-03-06 15:25:00,
2013-03-06 10:30:00,42.1,29.6,29.69,NE,49,3.0,3.0,61,0.00,,,0.03,Wunderground v.1.15,2013-03-06 15:30:00,
2013-03-06 10:40:00,42.6,28.8,29.69,SSW,210,3.0,3.0,58,0.00,,,0.03,Wunderground v.1.15,2013-03-06 15:40:00,
2013-03-06 10:45:00,42.5,29.2,29.69,SSW,196,3.0,4.0,59,0.00,,,0.03,Wunderground v.1.15,2013-03-06 15:45:00,
2013-03-06 10:55:00,42.7,28.5,29.69,SW,236,3.0,3.0,57,0.00,,,0.03,Wunderground v.1.15,2013-03-06 15:55:00,
2013-03-06 11:00:00,42.8,29.0,29.69,NW,322,4.0,4.0,58,0.00,,,0.03,Wunderground v.1.15,2013-03-06 16:00:00,
2013-03-06 11:10:00,43.3,29.5,29.70,East,85,4.0,4.0,58,0.00,,,0.03,Wunderground v.1.15,2013-03-06 16:10:00,
2013-03-06 11:15:00,43.6,28.5,29.70,WSW,237,4.0,4.0,55,0.00,,,0.03,Wunderground v.1.15,2013-03-06 16:15:00,
2013-03-06 11:25:00,43.8,29.1,29.70,WSW,238,3.0,5.0,56,0.00,,,0.03,Wunderground v.1.15,2013-03-06 16:25:00,
2013-03-06 11:30:00,44.0,28.4,29.70,NW,317,3.0,5.0,54,0.00,,,0.03,Wunderground v.1.15,2013-03-06 16:30:00,
2013-03-06 11:40:00,45.1,29.0,29.70,SSW,207,4.0,4.0,53,0.00,,,0.03,Wunderground v.1.15,2013-03-06 16:40:00,
2013-03-06 11:45:00,45.5,29.8,29.70,SSW,201,3.0,4.0,54,0.00,,,0.03,Wunderground v.1.15,2013-03-06 16:45:00,
2013-03-06 11:50:00,45.5,29.3,29.70,ENE,72,3.0,3.0,53,0.00,,,0.03,Wunderground v.1.15,2013-03-06 16:50:00,
2013-03-06 11:55:00,45.3,29.2,29.70,NNW,330,3.0,3.0,53,0.00,,,0.03,Wunderground v.1.15,2013-03-06 16:55:00,
2013-03-06 12:05:00,44.5,28.9,29.70,SW,214,3.0,4.0,54,0.00,,,0.03,Wunderground v.1.15,2013-03-06 17:05:00,
2013-03-06 12:10:00,44.9,29.2,29.70,SSE,158,3.0,3.0,54,0.00,,,0.03,Wunderground v.1.15,2013-03-06 17:10:00,
2013-03-06 12:15:00,44.9,28.8,29.71,SSE,148,3.0,3.0,53,0.00,,,0.03,Wunderground v.1.15,2013-03-06 17:15:00,
2013-03-06 13:25:00,45.2,29.5,29.72,SW,229,3.0,3.0,54,0.00,,,0.03,Wunderground v.1.15,2013-03-06 18:25:00,
2013-03-06 13:30:00,45.1,29.0,29.71,SSW,195,3.0,13.0,53,0.00,,,0.03,Wunderground v.1.15,2013-03-06 18:30:00,
2013-03-06 13:35:00,45.3,28.7,29.71,SSE,155,2.0,2.0,52,0.00,,,0.03,Wunderground v.1.15,2013-03-06 18:35:00,
2013-03-06 13:40:00,45.5,29.3,29.71,SW,225,2.0,6.0,53,0.00,,,0.03,Wunderground v.1.15,2013-03-06 18:40:00,
2013-03-06 15:40:00,46.9,31.1,29.77,East,84,2.0,13.0,54,0.00,,,0.03,Wunderground v.1.15,2013-03-06 20:40:00,
2013-03-06 15:45:00,46.8,31.0,29.78,SE,145,1.0,13.0,54,0.00,,,0.03,Wunderground v.1.15,2013-03-06 20:45:00,
2013-03-06 15:55:00,46.5,31.2,29.79,East,86,2.0,2.0,55,0.00,,,0.03,Wunderground v.1.15,2013-03-06 20:55:00,
2013-03-06 16:00:00,46.5,31.2,29.79,SSW,204,2.0,2.0,55,0.00,,,0.03,Wunderground v.1.15,2013-03-06 21:00:00,
2013-03-06 16:10:00,46.4,31.1,29.80,ENE,70,1.0,3.0,55,0.00,,,0.03,Wunderground v.1.15,2013-03-06 21:10:00,
2013-03-06 16:15:00,46.5,31.6,29.80,South,184,2.0,3.0,56,0.00,,,0.03,Wunderground v.1.15,2013-03-06 21:15:00,
2013-03-06 16:25:00,46.5,32.1,29.81,SE,133,1.0,2.0,57,0.00,,,0.03,Wunderground v.1.15,2013-03-06 21:25:00,
2013-03-06 16:30:00,46.5,31.6,29.82,SE,135,1.0,1.0,56,0.00,,,0.03,Wunderground v.1.15,2013-03-06 21:30:00,
2013-03-06 16:40:00,46.7,31.8,29.82,SSE,150,2.0,2.0,56,0.00,,,0.03,Wunderground v.1.15,2013-03-06 21:40:00,
2013-03-06 16:45:00,46.8,31.5,29.82,NW,313,1.0,5.0,55,0.00,,,0.03,Wunderground v.1.15,2013-03-06 21:45:00,
2013-03-06 16:50:00,46.6,31.3,29.83,ESE,112,2.0,2.0,55,0.00,,,0.03,Wunderground v.1.15,2013-03-06 21:50:00,
2013-03-06 17:00:00,46.3,31.0,29.83,ENE,62,2.0,2.0,55,0.00,,,0.03,Wunderground v.1.15,2013-03-06 22:00:00,
2013-03-06 17:10:00,46.1,31.7,29.85,East,92,1.0,1.0,57,0.00,,,0.03,Wunderground v.1.15,2013-03-06 22:10:00,
2013-03-06 17:15:00,45.9,31.5,29.85,SSW,211,2.0,2.0,57,0.00,,,0.03,Wunderground v.1.15,2013-03-06 22:15:00,
2013-03-06 17:25:00,45.8,31.9,29.86,SSE,156,1.0,2.0,58,0.00,,,0.03,Wunderground v.1.15,2013-03-06 22:25:00,
2013-03-06 17:30:00,45.7,31.8,29.86,West,273,1.0,3.0,58,0.00,,,0.03,Wunderground v.1.15,2013-03-06 22:30:00,
2013-03-06 17:40:00,45.6,31.7,29.88,SW,215,1.0,1.0,58,0.00,,,0.03,Wunderground v.1.15,2013-03-06 22:40:00,
2013-03-06 17:45:00,45.4,31.9,29.88,ESE,108,1.0,1.0,59,0.00,,,0.03,Wunderground v.1.15,2013-03-06 22:45:00,
2013-03-06 17:55:00,45.3,31.8,29.89,SSW,197,2.0,2.0,59,0.00,,,0.03,Wunderground v.1.15,2013-03-06 22:55:00,
2013-03-06 18:00:00,45.2,31.3,29.89,South,172,2.0,2.0,58,0.00,,,0.03,Wunderground v.1.15,2013-03-06 23:00:00,
2013-03-06 18:10:00,44.9,31.4,29.90,SSE,148,1.0,1.0,59,0.00,,,0.03,Wunderground v.1.15,2013-03-06 23:10:00,
2013-03-06 18:15:00,44.7,31.2,29.90,SSW,210,1.0,2.0,59,0.00,,,0.03,Wunderground v.1.15,2013-03-06 23:15:00,
2013-03-06 18:25:00,44.5,31.5,29.90,WSW,256,2.0,2.0,60,0.00,,,0.03,Wunderground v.1.15,2013-03-06 23:25:00,
2013-03-06 18:30:00,44.2,31.2,29.91,SSW,194,1.0,1.0,60,0.00,,,0.03,Wunderground v.1.15,2013-03-06 23:30:00,
2013-03-06 18:35:00,43.8,31.2,29.92,South,177,1.0,1.0,61,0.00,,,0.03,Wunderground v.1.15,2013-03-06 23:35:00,
2013-03-06 18:40:00,43.7,31.1,29.92,WSW,252,1.0,2.0,61,0.00,,,0.03,Wunderground v.1.15,2013-03-06 23:40:00,
2013-03-06 18:50:00,43.6,31.0,29.93,South,183,2.0,2.0,61,0.00,,,0.03,Wunderground v.1.15,2013-03-06 23:50:00,
2013-03-06 18:55:00,43.5,30.9,29.93,SSW,193,2.0,2.0,61,0.00,,,0.03,Wunderground v.1.15,2013-03-06 23:55:00,
2013-03-06 19:05:00,43.2,30.6,29.94,SE,129,2.0,2.0,61,0.00,,,0.03,Wunderground v.1.15,2013-03-07 00:05:00,
2013-03-06 19:10:00,43.0,30.9,29.94,South,181,2.0,2.0,62,0.00,,,0.03,Wunderground v.1.15,2013-03-07 00:10:00,
2013-03-06 19:15:00,42.8,30.7,29.95,South,191,1.0,2.0,62,0.00,,,0.03,Wunderground v.1.15,2013-03-07 00:15:00,
2013-03-06 19:25:00,42.5,30.8,29.95,SE,139,2.0,2.0,63,0.00,,,0.03,Wunderground v.1.15,2013-03-07 00:25:00,
2013-03-06 19:30:00,42.5,31.2,29.96,NNE,30,1.0,5.0,64,0.00,,,0.03,Wunderground v.1.15,2013-03-07 00:30:00,
2013-03-06 19:40:00,42.4,30.7,29.96,ESE,107,2.0,2.0,63,0.00,,,0.03,Wunderground v.1.15,2013-03-07 00:40:00,
2013-03-06 19:45:00,42.3,31.0,29.97,SSW,195,1.0,2.0,64,0.00,,,0.03,Wunderground v.1.15,2013-03-07 00:45:00,
2013-03-06 19:50:00,42.4,30.7,29.97,ESE,117,1.0,1.0,63,0.00,,,0.03,Wunderground v.1.15,2013-03-07 00:50:00,
2013-03-06 20:00:00,42.3,31.0,29.97,SSW,204,1.0,1.0,64,0.00,,,0.03,Wunderground v.1.15,2013-03-07 01:00:00,
2013-03-06 20:10:00,42.2,30.9,29.98,SSE,159,0.0,1.0,64,0.00,,,0.03,Wunderground v.1.15,2013-03-07 01:10:00,
2013-03-06 20:15:00,42.2,30.9,29.98,East,79,1.0,1.0,64,0.00,,,0.03,Wunderground v.1.15,2013-03-07 01:15:00,
2013-03-06 20:20:00,42.0,31.1,29.98,SE,143,1.0,1.0,65,0.00,,,0.03,Wunderground v.1.15,2013-03-07 01:20:00,
2013-03-06 20:25:00,41.8,30.9,29.98,SE,127,1.0,1.0,65,0.00,,,0.03,Wunderground v.1.15,2013-03-07 01:25:00,
2013-03-06 20:30:00,41.6,30.7,29.98,SSE,155,1.0,2.0,65,0.00,,,0.03,Wunderground v.1.15,2013-03-07 01:30:00,
2013-03-06 20:40:00,41.2,30.3,29.99,SSE,153,1.0,1.0,65,0.00,,,0.03,Wunderground v.1.15,2013-03-07 01:40:00,
2013-03-06 20:45:00,40.9,30.4,29.99,ESE,121,1.0,1.0,66,0.00,,,0.03,Wunderground v.1.15,2013-03-07 01:45:00,
2013-03-06 20:55:00,40.5,30.4,29.99,ESE,115,1.0,1.0,67,0.00,,,0.03,Wunderground v.1.15,2013-03-07 01:55:00,
2013-03-06 21:00:00,40.4,30.3,29.99,SE,133,1.0,1.0,67,0.00,,,0.03,Wunderground v.1.15,2013-03-07 02:00:00,
2013-03-06 21:10:00,40.0,30.3,30.00,SE,141,0.0,0.0,68,0.00,,,0.03,Wunderground v.1.15,2013-03-07 02:10:00,
2013-03-06 21:15:00,39.8,30.1,30.00,East,85,0.0,1.0,68,0.00,,,0.03,Wunderground v.1.15,2013-03-07 02:15:00,
2013-03-06 21:25:00,39.5,30.2,30.00,SSW,199,0.0,0.0,69,0.00,,,0.03,Wunderground v.1.15,2013-03-07 02:25:00,
2013-03-06 21:30:00,39.3,30.0,30.01,SSE,166,0.0,0.0,69,0.00,,,0.03,Wunderground v.1.15,2013-03-07 02:30:00,
2013-03-06 21:35:00,39.1,30.1,30.01,SE,141,0.0,0.0,70,0.00,,,0.03,Wunderground v.1.15,2013-03-07 02:35:00,
2013-03-06 21:45:00,38.6,29.7,30.01,SSE,149,0.0,0.0,70,0.00,,,0.03,Wunderground v.1.15,2013-03-07 02:45:00,
2013-03-06 21:50:00,38.4,29.8,30.01,SSE,161,0.0,0.0,71,0.00,,,0.03,Wunderground v.1.15,2013-03-07 02:50:00,
2013-03-06 21:55:00,38.2,29.6,30.01,SE,127,0.0,0.0,71,0.00,,,0.03,Wunderground v.1.15,2013-03-07 02:55:00,
2013-03-06 22:00:00,38.1,29.9,30.01,South,191,0.0,0.0,72,0.00,,,0.03,Wunderground v.1.15,2013-03-07 03:00:00,
2013-03-06 22:10:00,37.8,29.6,30.01,SSE,153,0.0,0.0,72,0.00,,,0.03,Wunderground v.1.15,2013-03-07 03:10:00,
2013-03-06 22:20:00,37.4,29.5,30.02,South,169,0.0,0.0,73,0.00,,,0.03,Wunderground v.1.15,2013-03-07 03:20:00,
2013-03-06 22:25:00,37.3,29.8,30.02,ESE,113,0.0,1.0,74,0.00,,,0.03,Wunderground v.1.15,2013-03-07 03:25:00,
2013-03-06 22:30:00,37.2,29.3,30.02,SE,143,0.0,0.0,73,0.00,,,0.03,Wunderground v.1.15,2013-03-07 03:30:00,
2013-03-06 22:40:00,36.9,29.4,30.02,SSE,150,0.0,0.0,74,0.00,,,0.03,Wunderground v.1.15,2013-03-07 03:40:00,
2013-03-06 22:45:00,36.8,29.3,30.02,SSE,150,0.0,0.0,74,0.00,,,0.03,Wunderground v.1.15,2013-03-07 03:45:00,
2013-03-06 22:55:00,36.5,29.3,30.03,South,175,0.0,0.0,75,0.00,,,0.03,Wunderground v.1.15,2013-03-07 03:55:00,
2013-03-06 23:00:00,36.5,29.3,30.02,WSW,255,0.0,0.0,75,0.00,,,0.03,Wunderground v.1.15,2013-03-07 04:00:00,
2013-03-06 23:05:00,36.4,29.2,30.02,SSE,148,0.0,0.0,75,0.00,,,0.03,Wunderground v.1.15,2013-03-07 04:05:00,
2013-03-06 23:15:00,36.2,29.4,30.02,SSE,148,0.0,0.0,76,0.00,,,0.03,Wunderground v.1.15,2013-03-07 04:15:00,